This is the latest recevied weather packets stored in our database for station/object KF0KFL-13. If no packets are shown the sender has not sent any weather packets the latest 1 day(s).
| Time | Temp. | Humidity | Pressure | Rain* | Wind** | Luminosity | Snow |
|---|---|---|---|---|---|---|---|
| 1778029067 | 7.78° C | 45% | 1010.5 hPa | 0 mm | 1.34 m/s, 9° | 9 W/m² | - |
| 1778027867 | 7.78° C | 44% | 1010.5 hPa | 0 mm | 1.34 m/s, 13° | 17 W/m² | - |
| 1778026637 | 8.33° C | 43% | 1010.2 hPa | 0 mm | 1.34 m/s, 21° | 24 W/m² | - |
| 1778025407 | 8.89° C | 42% | 1010.2 hPa | 0 mm | 0.89 m/s, 32° | 45 W/m² | - |
| 1778024177 | 9.44° C | 40% | 1010 hPa | 0 mm | 0.89 m/s, 59° | 67 W/m² | - |
| 1778022947 | 10° C | 39% | 1009.9 hPa | 0 mm | 0.89 m/s, 34° | 158 W/m² | - |
| 1778021747 | 8.89° C | 41% | 1010 hPa | 0 mm | 1.34 m/s, 20° | 96 W/m² | - |
| 1778020517 | 9.44° C | 41% | 1009.6 hPa | 0 mm | 1.34 m/s, 12° | 326 W/m² | - |
| 1778019287 | 8.89° C | 40% | 1009.9 hPa | 0 mm | 2.68 m/s, 352° | 111 W/m² | - |
| 1778018057 | 8.89° C | 41% | 1010 hPa | 0 mm | 1.34 m/s, 4° | 131 W/m² | - |
| 1778016827 | 9.44° C | 40% | 1010 hPa | 0 mm | 1.79 m/s, 4° | 130 W/m² | - |
| 1778015597 | 9.44° C | 39% | 1010 hPa | 0 mm | 1.34 m/s, 8° | 167 W/m² | - |
| 1778014367 | 10° C | 40% | 1010 hPa | 0 mm | 1.79 m/s, 359° | 135 W/m² | - |
| 1778013136 | 9.44° C | 40% | 1010 hPa | 0 mm | 1.34 m/s, 10° | 285 W/m² | - |
| 1778011907 | 10° C | 38% | 1010.1 hPa | 0 mm | 0.45 m/s, 176° | 221 W/m² | - |
| 1778010677 | 8.89° C | 40% | 1010.1 hPa | 0 mm | 1.34 m/s, 11° | 181 W/m² | - |
| 1778009446 | 9.44° C | 40% | 1010.2 hPa | 0 mm | 1.79 m/s, 11° | 158 W/m² | - |
| 1778008246 | 9.44° C | 41% | 1010.1 hPa | 0 mm | 1.34 m/s, 21° | 197 W/m² | - |
| 1778007016 | 8.89° C | 41% | 1010.5 hPa | 0 mm | 1.34 m/s, 18° | 679 W/m² | - |
| 1778005816 | 9.44° C | 39% | 1010.2 hPa | 0 mm | 1.34 m/s, 11° | 260 W/m² | - |
| 1778004586 | 8.33° C | 41% | 1010.2 hPa | 0 mm | 1.34 m/s, 33° | 160 W/m² | - |
| 1778003356 | 8.89° C | 42% | 1010.1 hPa | 0 mm | 0.89 m/s, 3° | 188 W/m² | - |
| 1778002126 | 8.33° C | 41% | 1010.1 hPa | 0 mm | 1.34 m/s, 9° | 486 W/m² | - |
| 1778000896 | 7.78° C | 40% | 1010.1 hPa | 0 mm | 1.34 m/s, 7° | 200 W/m² | - |
| 1777999666 | 8.33° C | 41% | 1010.7 hPa | 0 mm | 1.34 m/s, 14° | 219 W/m² | - |
* Rain latest hour (hover to see other rain measurements)
** Current wind speed in m/s (hover to see current wind gust speed)